Year,Month,Day,Hour,Minute,Value (Times are PST for temperature in C)
2010,05,18,00,00,13.00
2010,05,18,00,01,13.00
2010,05,18,00,02,13.00
2010,05,18,00,03,13.00
2010,05,18,00,04,13.00
2010,05,18,00,05,13.00
2010,05,18,00,06,13.00
2010,05,18,00,07,13.00
2010,05,18,00,08,13.00
2010,05,18,00,09,13.10
2010,05,18,00,10,13.10
2010,05,18,00,11,13.10
2010,05,18,00,12,13.10
2010,05,18,00,13,13.10
2010,05,18,00,14,13.00
2010,05,18,00,15,13.00
2010,05,18,00,16,13.00
2010,05,18,00,17,13.00
2010,05,18,00,18,13.00
2010,05,18,00,19,13.00
2010,05,18,00,20,13.00
2010,05,18,00,21,13.00
2010,05,18,00,22,12.90
2010,05,18,00,23,12.90
2010,05,18,00,24,12.90
2010,05,18,00,25,12.90
2010,05,18,00,26,12.90
2010,05,18,00,27,12.90
2010,05,18,00,28,12.90
2010,05,18,00,29,12.90
2010,05,18,00,30,12.80
2010,05,18,00,31,12.80
2010,05,18,00,32,12.80
2010,05,18,00,33,12.80
2010,05,18,00,34,12.80
2010,05,18,00,35,12.80
2010,05,18,00,36,12.80
2010,05,18,00,37,12.80
2010,05,18,00,38,12.80
2010,05,18,00,39,12.80
2010,05,18,00,40,12.80
2010,05,18,00,41,12.80
2010,05,18,00,42,12.80
2010,05,18,00,43,12.80
2010,05,18,00,44,12.90
2010,05,18,00,45,12.90
2010,05,18,00,46,12.90
2010,05,18,00,47,12.90
2010,05,18,00,48,12.90
2010,05,18,00,49,12.90
2010,05,18,00,50,12.90
2010,05,18,00,51,12.90
2010,05,18,00,52,12.90
2010,05,18,00,53,12.90
2010,05,18,00,54,12.90
2010,05,18,00,55,12.90
2010,05,18,00,56,12.90
2010,05,18,00,57,12.90
2010,05,18,00,58,12.90
2010,05,18,00,59,12.90
2010,05,18,01,00,12.90
2010,05,18,01,01,12.90
2010,05,18,01,02,12.90
2010,05,18,01,03,12.90
2010,05,18,01,04,12.90
2010,05,18,01,05,12.90
2010,05,18,01,06,12.90
2010,05,18,01,07,12.90
2010,05,18,01,08,12.90
2010,05,18,01,09,12.90
2010,05,18,01,10,12.90
2010,05,18,01,11,13.00
2010,05,18,01,12,13.00
2010,05,18,01,13,13.00
2010,05,18,01,14,13.00
2010,05,18,01,15,13.00
2010,05,18,01,16,13.00
2010,05,18,01,17,13.00
2010,05,18,01,18,13.00
2010,05,18,01,19,13.00
2010,05,18,01,20,13.00
2010,05,18,01,21,13.00
2010,05,18,01,22,13.00
2010,05,18,01,23,13.00
2010,05,18,01,24,13.00
2010,05,18,01,25,12.90
2010,05,18,01,26,13.00
2010,05,18,01,27,13.00
2010,05,18,01,28,13.00
2010,05,18,01,29,13.00
2010,05,18,01,30,13.00
2010,05,18,01,31,13.00
2010,05,18,01,32,13.00
2010,05,18,01,33,13.10
2010,05,18,01,34,13.10
2010,05,18,01,35,13.10
2010,05,18,01,36,13.10
2010,05,18,01,37,13.10
2010,05,18,01,38,13.10
2010,05,18,01,39,13.10
2010,05,18,01,40,13.10
2010,05,18,01,41,13.10
2010,05,18,01,42,13.10
2010,05,18,01,43,13.10
2010,05,18,01,44,13.10
2010,05,18,01,45,13.10
2010,05,18,01,46,13.10
2010,05,18,01,47,13.10
2010,05,18,01,48,13.10
2010,05,18,01,49,13.10
2010,05,18,01,50,13.10
2010,05,18,01,51,13.10
2010,05,18,01,52,13.10
2010,05,18,01,53,13.10
2010,05,18,01,54,13.10
2010,05,18,01,55,13.10
2010,05,18,01,56,13.10
2010,05,18,01,57,13.10
2010,05,18,01,58,13.10
2010,05,18,01,59,13.10
2010,05,18,02,00,13.10
2010,05,18,02,01,13.10
2010,05,18,02,02,13.00
2010,05,18,02,03,13.00
2010,05,18,02,04,13.00
2010,05,18,02,05,13.00
2010,05,18,02,06,13.00
2010,05,18,02,07,13.00
2010,05,18,02,08,13.00
2010,05,18,02,09,13.00
2010,05,18,02,10,13.00
2010,05,18,02,11,13.00
2010,05,18,02,12,13.00
2010,05,18,02,13,13.00
2010,05,18,02,14,13.00
2010,05,18,02,15,13.00
2010,05,18,02,16,13.00
2010,05,18,02,17,13.00
2010,05,18,02,18,13.00
2010,05,18,02,19,13.00
2010,05,18,02,20,12.90
2010,05,18,02,21,12.90
2010,05,18,02,22,12.90
2010,05,18,02,23,13.00
2010,05,18,02,24,12.90
2010,05,18,02,25,13.00
2010,05,18,02,26,13.00
2010,05,18,02,27,13.00
2010,05,18,02,28,13.00
2010,05,18,02,29,13.00
2010,05,18,02,30,13.00
2010,05,18,02,31,13.00
2010,05,18,02,32,13.00
2010,05,18,02,33,13.00
2010,05,18,02,34,13.00
2010,05,18,02,35,13.00
2010,05,18,02,36,12.90
2010,05,18,02,37,12.90
2010,05,18,02,38,12.90
2010,05,18,02,39,13.00
2010,05,18,02,40,13.00
2010,05,18,02,41,13.00
2010,05,18,02,42,13.00
2010,05,18,02,43,13.00
2010,05,18,02,44,13.00
2010,05,18,02,45,13.10
2010,05,18,02,46,13.10
2010,05,18,02,47,13.10
2010,05,18,02,48,13.10
2010,05,18,02,49,13.10
2010,05,18,02,50,13.10
2010,05,18,02,51,13.10
2010,05,18,02,52,13.10
2010,05,18,02,53,13.10
2010,05,18,02,54,13.10
2010,05,18,02,55,13.20
2010,05,18,02,56,13.20
2010,05,18,02,57,13.20
2010,05,18,02,58,13.20
2010,05,18,02,59,13.20
2010,05,18,03,00,13.20
2010,05,18,03,01,13.20
2010,05,18,03,02,13.20
2010,05,18,03,03,13.20
2010,05,18,03,04,13.20
2010,05,18,03,05,13.20
2010,05,18,03,06,13.20
2010,05,18,03,07,13.20
2010,05,18,03,08,13.20
2010,05,18,03,09,13.20
2010,05,18,03,10,13.20
2010,05,18,03,11,13.20
2010,05,18,03,12,13.20
2010,05,18,03,13,13.20
2010,05,18,03,14,13.20
2010,05,18,03,15,13.20
2010,05,18,03,16,13.20
2010,05,18,03,17,13.20
2010,05,18,03,18,13.20
2010,05,18,03,19,13.20
2010,05,18,03,20,13.20
2010,05,18,03,21,13.20
2010,05,18,03,22,13.20
2010,05,18,03,23,13.20
2010,05,18,03,24,13.20
2010,05,18,03,25,13.20
2010,05,18,03,26,13.20
2010,05,18,03,27,13.20
2010,05,18,03,28,13.20
2010,05,18,03,29,13.20
2010,05,18,03,30,13.20
2010,05,18,03,31,13.20
2010,05,18,03,32,13.20
2010,05,18,03,33,13.20
2010,05,18,03,34,13.20
2010,05,18,03,35,13.20
2010,05,18,03,36,13.20
2010,05,18,03,37,13.20
2010,05,18,03,38,13.20
2010,05,18,03,39,13.20
2010,05,18,03,40,13.20
2010,05,18,03,41,13.20
2010,05,18,03,42,13.30
2010,05,18,03,43,13.30
2010,05,18,03,44,13.30
2010,05,18,03,45,13.30
2010,05,18,03,46,13.30
2010,05,18,03,47,13.30
2010,05,18,03,48,13.30
2010,05,18,03,49,13.30
2010,05,18,03,50,13.30
2010,05,18,03,51,13.30
2010,05,18,03,52,13.30
2010,05,18,03,53,13.30
2010,05,18,03,54,13.30
2010,05,18,03,55,13.40
2010,05,18,03,56,13.40
2010,05,18,03,57,13.40
2010,05,18,03,58,13.40
2010,05,18,03,59,13.40
2010,05,18,04,00,13.40
2010,05,18,04,01,13.40
2010,05,18,04,02,13.40
2010,05,18,04,03,13.40
2010,05,18,04,04,13.40
2010,05,18,04,05,13.40
2010,05,18,04,06,13.40
2010,05,18,04,07,13.40
2010,05,18,04,08,13.40
2010,05,18,04,09,13.40
2010,05,18,04,10,13.40
2010,05,18,04,11,13.40
2010,05,18,04,12,13.40
2010,05,18,04,13,13.40
2010,05,18,04,14,13.40
2010,05,18,04,15,13.40
2010,05,18,04,16,13.40
2010,05,18,04,17,13.40
2010,05,18,04,18,13.40
2010,05,18,04,19,13.40
2010,05,18,04,20,13.40
2010,05,18,04,21,13.30
2010,05,18,04,22,13.30
2010,05,18,04,23,13.30
2010,05,18,04,24,13.30
2010,05,18,04,25,13.30
2010,05,18,04,26,13.30
2010,05,18,04,27,13.30
2010,05,18,04,28,13.20
2010,05,18,04,29,13.20
2010,05,18,04,30,13.20
2010,05,18,04,31,13.20
2010,05,18,04,32,13.10
2010,05,18,04,33,13.10
2010,05,18,04,34,13.10
2010,05,18,04,35,13.00
2010,05,18,04,36,13.00
2010,05,18,04,37,13.00
2010,05,18,04,38,12.90
2010,05,18,04,39,12.90
2010,05,18,04,40,12.80
2010,05,18,04,41,12.80
2010,05,18,04,42,12.80
2010,05,18,04,43,12.70
2010,05,18,04,44,12.70
2010,05,18,04,45,12.60
2010,05,18,04,46,12.60
2010,05,18,04,47,12.50
2010,05,18,04,48,12.50
2010,05,18,04,49,12.50
2010,05,18,04,50,12.40
2010,05,18,04,51,12.40
2010,05,18,04,52,12.40
2010,05,18,04,53,12.40
2010,05,18,04,54,12.30
2010,05,18,04,55,12.30
2010,05,18,04,56,12.30
2010,05,18,04,57,12.30
2010,05,18,04,58,12.30
2010,05,18,04,59,12.20
2010,05,18,05,00,12.20
2010,05,18,05,01,12.20
2010,05,18,05,02,12.20
2010,05,18,05,03,12.20
2010,05,18,05,04,12.10
2010,05,18,05,05,12.10
2010,05,18,05,06,12.00
2010,05,18,05,07,12.00
2010,05,18,05,08,12.00
2010,05,18,05,09,12.00
2010,05,18,05,10,11.90
2010,05,18,05,11,11.90
2010,05,18,05,12,11.90
2010,05,18,05,13,11.90
2010,05,18,05,14,11.80
2010,05,18,05,15,11.80
2010,05,18,05,16,11.80
2010,05,18,05,17,11.80
2010,05,18,05,18,11.80
2010,05,18,05,19,11.80
2010,05,18,05,20,11.80
2010,05,18,05,21,11.70
2010,05,18,05,22,11.70
2010,05,18,05,23,11.70
2010,05,18,05,24,11.70
2010,05,18,05,25,11.70
2010,05,18,05,26,11.70
2010,05,18,05,27,11.70
2010,05,18,05,28,11.70
2010,05,18,05,29,11.70
2010,05,18,05,30,11.70
2010,05,18,05,31,11.70
2010,05,18,05,32,11.60
2010,05,18,05,33,11.60
2010,05,18,05,34,11.60
2010,05,18,05,35,11.60
2010,05,18,05,36,11.60
2010,05,18,05,37,11.60
2010,05,18,05,38,11.60
2010,05,18,05,39,11.60
2010,05,18,05,40,11.60
2010,05,18,05,41,11.60
2010,05,18,05,42,11.60
2010,05,18,05,43,11.60
2010,05,18,05,44,11.60
2010,05,18,05,45,11.60
2010,05,18,05,46,11.50
2010,05,18,05,47,11.50
2010,05,18,05,48,11.50
2010,05,18,05,49,11.40
2010,05,18,05,50,11.40
2010,05,18,05,51,11.40
2010,05,18,05,52,11.30
2010,05,18,05,53,11.30
2010,05,18,05,54,11.30
2010,05,18,05,55,11.30
2010,05,18,05,56,11.20
2010,05,18,05,57,11.20
2010,05,18,05,58,11.20
2010,05,18,05,59,11.10
2010,05,18,06,00,11.10
2010,05,18,06,01,11.10
2010,05,18,06,02,11.00
2010,05,18,06,03,11.00
2010,05,18,06,04,10.90
2010,05,18,06,05,10.90
2010,05,18,06,06,10.80
2010,05,18,06,07,10.80
2010,05,18,06,08,10.80
2010,05,18,06,09,10.80
2010,05,18,06,10,10.80
2010,05,18,06,11,10.70
2010,05,18,06,12,10.70
2010,05,18,06,13,10.70
2010,05,18,06,14,10.70
2010,05,18,06,15,10.70
2010,05,18,06,16,10.70
2010,05,18,06,17,10.70
2010,05,18,06,18,10.60
2010,05,18,06,19,10.60
2010,05,18,06,20,10.60
2010,05,18,06,21,10.60
2010,05,18,06,22,10.60
2010,05,18,06,23,10.60
2010,05,18,06,24,10.60
2010,05,18,06,25,10.60
2010,05,18,06,26,10.60
2010,05,18,06,27,10.60
2010,05,18,06,28,10.60
2010,05,18,06,29,10.60
2010,05,18,06,30,10.60
2010,05,18,06,31,10.60
2010,05,18,06,32,10.60
2010,05,18,06,33,10.60
2010,05,18,06,34,10.60
2010,05,18,06,35,10.60
2010,05,18,06,36,10.60
2010,05,18,06,37,10.60
2010,05,18,06,38,10.60
2010,05,18,06,39,10.60
2010,05,18,06,40,10.60
2010,05,18,06,41,10.60
2010,05,18,06,42,10.60
2010,05,18,06,43,10.60
2010,05,18,06,44,10.60
2010,05,18,06,45,10.60
2010,05,18,06,46,10.60
2010,05,18,06,47,10.60
2010,05,18,06,48,10.60
2010,05,18,06,49,10.60
2010,05,18,06,50,10.60
2010,05,18,06,51,10.60
2010,05,18,06,52,10.60
2010,05,18,06,53,10.60
2010,05,18,06,54,10.60
2010,05,18,06,55,10.50
2010,05,18,06,56,10.50
2010,05,18,06,57,10.50
2010,05,18,06,58,10.50
2010,05,18,06,59,10.50
2010,05,18,07,00,10.50
2010,05,18,07,01,10.50
2010,05,18,07,02,10.50
2010,05,18,07,03,10.50
2010,05,18,07,04,10.50
2010,05,18,07,05,10.50
2010,05,18,07,06,10.50
2010,05,18,07,07,10.50
2010,05,18,07,08,10.50
2010,05,18,07,09,10.50
2010,05,18,07,10,10.50
2010,05,18,07,11,10.50
2010,05,18,07,12,10.50
2010,05,18,07,13,10.50
2010,05,18,07,14,10.50
2010,05,18,07,15,10.50
2010,05,18,07,16,10.40
2010,05,18,07,17,10.40
2010,05,18,07,18,10.40
2010,05,18,07,19,10.40
2010,05,18,07,20,10.40
2010,05,18,07,21,10.40
2010,05,18,07,22,10.40
2010,05,18,07,23,10.40
2010,05,18,07,24,10.40
2010,05,18,07,25,10.40
2010,05,18,07,26,10.40
2010,05,18,07,27,10.40
2010,05,18,07,28,10.40
2010,05,18,07,29,10.40
2010,05,18,07,30,10.40
2010,05,18,07,31,10.40
2010,05,18,07,32,10.40
2010,05,18,07,33,10.40
2010,05,18,07,34,10.30
2010,05,18,07,35,10.30
2010,05,18,07,36,10.30
2010,05,18,07,37,10.30
2010,05,18,07,38,10.30
2010,05,18,07,39,10.30
2010,05,18,07,40,10.30
2010,05,18,07,41,10.30
2010,05,18,07,42,10.30
2010,05,18,07,43,10.30
2010,05,18,07,44,10.30
2010,05,18,07,45,10.30
2010,05,18,07,46,10.30
2010,05,18,07,47,10.40
2010,05,18,07,48,10.40
2010,05,18,07,49,10.40
2010,05,18,07,50,10.40
2010,05,18,07,51,10.40
2010,05,18,07,52,10.40
2010,05,18,07,53,10.40
2010,05,18,07,54,10.40
2010,05,18,07,55,10.40
2010,05,18,07,56,10.40
2010,05,18,07,57,10.40
2010,05,18,07,58,10.40
2010,05,18,07,59,10.40
2010,05,18,08,00,10.40
2010,05,18,08,01,10.40
2010,05,18,08,02,10.40
2010,05,18,08,03,10.40
2010,05,18,08,04,10.40
2010,05,18,08,05,10.40
2010,05,18,08,06,10.40
2010,05,18,08,07,10.40
2010,05,18,08,08,10.40
2010,05,18,08,09,10.40
2010,05,18,08,10,10.40
2010,05,18,08,11,10.40
2010,05,18,08,12,10.40
2010,05,18,08,13,10.40
2010,05,18,08,14,10.40
2010,05,18,08,15,10.40
2010,05,18,08,16,10.40
2010,05,18,08,17,10.40
2010,05,18,08,18,10.40
2010,05,18,08,19,10.40
2010,05,18,08,20,10.40
2010,05,18,08,21,10.40
2010,05,18,08,22,10.40
2010,05,18,08,23,10.40
2010,05,18,08,24,10.40
2010,05,18,08,25,10.40
2010,05,18,08,26,10.40
2010,05,18,08,27,10.40
2010,05,18,08,28,10.40
2010,05,18,08,29,10.50
2010,05,18,08,30,10.50
2010,05,18,08,31,10.50
2010,05,18,08,32,10.50
2010,05,18,08,33,10.50
2010,05,18,08,34,10.50
2010,05,18,08,35,10.50
2010,05,18,08,36,10.50
2010,05,18,08,37,10.60
2010,05,18,08,38,10.60
2010,05,18,08,39,10.60
2010,05,18,08,40,10.60
2010,05,18,08,41,10.60
2010,05,18,08,42,10.60
2010,05,18,08,43,10.60
2010,05,18,08,44,10.70
2010,05,18,08,45,10.70
2010,05,18,08,46,10.70
2010,05,18,08,47,10.70
2010,05,18,08,48,10.70
2010,05,18,08,49,10.70
2010,05,18,08,50,10.70
2010,05,18,08,51,10.70
2010,05,18,08,52,10.70
2010,05,18,08,53,10.70
2010,05,18,08,54,10.70
2010,05,18,08,55,10.70
2010,05,18,08,56,10.70
2010,05,18,08,57,10.70
2010,05,18,08,58,10.70
2010,05,18,08,59,10.70
2010,05,18,09,00,10.80
2010,05,18,09,01,10.80
2010,05,18,09,02,10.80
2010,05,18,09,03,10.80
2010,05,18,09,04,10.80
2010,05,18,09,05,10.80
2010,05,18,09,06,10.80
2010,05,18,09,07,10.80
2010,05,18,09,08,10.80
2010,05,18,09,09,10.80
2010,05,18,09,10,10.90
2010,05,18,09,11,10.90
2010,05,18,09,12,10.90
2010,05,18,09,13,10.90
2010,05,18,09,14,10.90
2010,05,18,09,15,10.90
2010,05,18,09,16,11.00
2010,05,18,09,17,11.00
2010,05,18,09,18,11.00
2010,05,18,09,19,10.90
2010,05,18,09,20,11.00
2010,05,18,09,21,10.90
2010,05,18,09,22,10.90
2010,05,18,09,23,11.00
2010,05,18,09,24,11.00
2010,05,18,09,25,11.00
2010,05,18,09,26,11.00
2010,05,18,09,27,11.00
2010,05,18,09,28,11.00
2010,05,18,09,29,11.00
2010,05,18,09,30,11.00
2010,05,18,09,31,11.00
2010,05,18,09,32,11.00
2010,05,18,09,33,11.00
2010,05,18,09,34,11.00
2010,05,18,09,35,11.00
2010,05,18,09,36,11.00
2010,05,18,09,37,11.10
2010,05,18,09,38,11.10
2010,05,18,09,39,11.10
2010,05,18,09,40,11.10
2010,05,18,09,41,11.10
2010,05,18,09,42,11.10
2010,05,18,09,43,11.10
2010,05,18,09,44,11.10
2010,05,18,09,45,11.00
2010,05,18,09,46,11.00
2010,05,18,09,47,11.00
2010,05,18,09,48,11.00
2010,05,18,09,49,11.00
2010,05,18,09,50,11.00
2010,05,18,09,51,11.00
2010,05,18,09,52,11.00
2010,05,18,09,53,11.00
2010,05,18,09,54,11.00
2010,05,18,09,55,11.00
2010,05,18,09,56,11.00
2010,05,18,09,57,11.00
2010,05,18,09,58,11.10
2010,05,18,09,59,11.10
2010,05,18,10,00,11.10
2010,05,18,10,01,11.10
2010,05,18,10,02,11.20
2010,05,18,10,03,11.20
2010,05,18,10,04,11.20
2010,05,18,10,05,11.20
2010,05,18,10,06,11.20
2010,05,18,10,07,11.20
2010,05,18,10,08,11.30
2010,05,18,10,09,11.30
2010,05,18,10,10,11.30
2010,05,18,10,11,11.30
2010,05,18,10,12,11.30
2010,05,18,10,13,11.30
2010,05,18,10,14,11.30
2010,05,18,10,15,11.30
2010,05,18,10,16,11.30
2010,05,18,10,17,11.30
2010,05,18,10,18,11.30
2010,05,18,10,19,11.30
2010,05,18,10,20,11.30
2010,05,18,10,21,11.30
2010,05,18,10,22,11.30
2010,05,18,10,23,11.20
2010,05,18,10,24,11.20
2010,05,18,10,25,11.20
2010,05,18,10,26,11.20
2010,05,18,10,27,11.20
2010,05,18,10,28,11.20
2010,05,18,10,29,11.30
2010,05,18,10,30,11.30
2010,05,18,10,31,11.30
2010,05,18,10,32,11.40
2010,05,18,10,33,11.40
2010,05,18,10,34,11.40
2010,05,18,10,35,11.40
2010,05,18,10,36,11.40
2010,05,18,10,37,11.40
2010,05,18,10,38,11.40
2010,05,18,10,39,11.40
2010,05,18,10,40,11.50
2010,05,18,10,41,11.50
2010,05,18,10,42,11.60
2010,05,18,10,43,11.60
2010,05,18,10,44,11.60
2010,05,18,10,45,11.60
2010,05,18,10,46,11.60
2010,05,18,10,47,11.60
2010,05,18,10,48,11.60
2010,05,18,10,49,11.60
2010,05,18,10,50,11.60
2010,05,18,10,51,11.60
2010,05,18,10,52,11.60
2010,05,18,10,53,11.60
2010,05,18,10,54,11.60
2010,05,18,10,55,11.70
2010,05,18,10,56,11.70
2010,05,18,10,57,11.70
2010,05,18,10,58,11.70
2010,05,18,10,59,11.80
2010,05,18,11,00,11.80
2010,05,18,11,01,11.80
2010,05,18,11,02,11.80
2010,05,18,11,03,11.90
2010,05,18,11,04,11.90
2010,05,18,11,05,11.90
2010,05,18,11,06,11.90
2010,05,18,11,07,12.00
2010,05,18,11,08,12.00
2010,05,18,11,09,12.00
2010,05,18,11,10,12.00
2010,05,18,11,11,12.00
2010,05,18,11,12,12.10
2010,05,18,11,13,12.10
2010,05,18,11,14,12.10
2010,05,18,11,15,12.10
2010,05,18,11,16,12.10
2010,05,18,11,17,12.20
2010,05,18,11,18,12.20
2010,05,18,11,19,12.30
2010,05,18,11,20,12.30
2010,05,18,11,21,12.30
2010,05,18,11,22,12.30
2010,05,18,11,23,12.40
2010,05,18,11,24,12.40
2010,05,18,11,25,12.40
2010,05,18,11,26,12.50
2010,05,18,11,27,12.50
2010,05,18,11,28,12.60
2010,05,18,11,29,12.70
2010,05,18,11,30,12.70
2010,05,18,11,31,12.70
2010,05,18,11,32,12.80
2010,05,18,11,33,12.80
2010,05,18,11,34,12.80
2010,05,18,11,35,12.90
2010,05,18,11,36,12.90
2010,05,18,11,37,12.90
2010,05,18,11,38,13.00
2010,05,18,11,39,13.00
2010,05,18,11,40,13.00
2010,05,18,11,41,13.10
2010,05,18,11,42,13.10
2010,05,18,11,43,13.10
2010,05,18,11,44,13.10
2010,05,18,11,45,13.10
2010,05,18,11,46,13.10
2010,05,18,11,47,13.10
2010,05,18,11,48,13.10
2010,05,18,11,49,13.10
2010,05,18,11,50,13.10
2010,05,18,11,51,13.10
2010,05,18,11,52,13.10
2010,05,18,11,53,13.10
2010,05,18,11,54,13.10
2010,05,18,11,55,13.20
2010,05,18,11,56,13.20
2010,05,18,11,57,13.20
2010,05,18,11,58,13.20
2010,05,18,11,59,13.20
2010,05,18,12,00,13.20
2010,05,18,12,01,13.30
2010,05,18,12,02,13.30
2010,05,18,12,03,13.40
2010,05,18,12,04,13.40
2010,05,18,12,05,13.40
2010,05,18,12,06,13.50
2010,05,18,12,07,13.60
2010,05,18,12,08,13.60
2010,05,18,12,09,13.60
2010,05,18,12,10,13.70
2010,05,18,12,11,13.70
2010,05,18,12,12,13.70
2010,05,18,12,13,13.80
2010,05,18,12,14,13.80
2010,05,18,12,15,13.80
2010,05,18,12,16,13.90
2010,05,18,12,17,13.90
2010,05,18,12,18,14.00
2010,05,18,12,19,14.00
2010,05,18,12,20,14.10
2010,05,18,12,21,14.10
2010,05,18,12,22,14.10
2010,05,18,12,23,14.20
2010,05,18,12,24,14.20
2010,05,18,12,25,14.20
2010,05,18,12,26,14.20
2010,05,18,12,27,14.20
2010,05,18,12,28,14.20
2010,05,18,12,29,14.30
2010,05,18,12,30,14.30
2010,05,18,12,31,14.30
2010,05,18,12,32,14.30
2010,05,18,12,33,14.30
2010,05,18,12,34,14.20
2010,05,18,12,35,14.20
2010,05,18,12,36,14.20
2010,05,18,12,37,14.20
2010,05,18,12,38,14.20
2010,05,18,12,39,14.30
2010,05,18,12,40,14.30
2010,05,18,12,41,14.40
2010,05,18,12,42,14.40
2010,05,18,12,43,14.40
2010,05,18,12,44,14.50
2010,05,18,12,45,14.50
2010,05,18,12,46,14.60
2010,05,18,12,47,14.60
2010,05,18,12,48,14.60
2010,05,18,12,49,14.60
2010,05,18,12,50,14.60
2010,05,18,12,51,14.60
2010,05,18,12,52,14.60
2010,05,18,12,53,14.70
2010,05,18,12,54,14.70
2010,05,18,12,55,14.70
2010,05,18,12,56,14.70
2010,05,18,12,57,14.70
2010,05,18,12,58,14.70
2010,05,18,12,59,14.80
2010,05,18,13,00,14.70
2010,05,18,13,01,14.70
2010,05,18,13,02,14.70
2010,05,18,13,03,14.70
2010,05,18,13,04,14.70
2010,05,18,13,05,14.70
2010,05,18,13,06,14.70
2010,05,18,13,07,14.70
2010,05,18,13,08,14.70
2010,05,18,13,09,14.70
2010,05,18,13,10,14.70
2010,05,18,13,11,14.80
2010,05,18,13,12,14.80
2010,05,18,13,13,14.80
2010,05,18,13,14,14.80
2010,05,18,13,15,14.80
2010,05,18,13,16,14.80
2010,05,18,13,17,14.90
2010,05,18,13,18,14.90
2010,05,18,13,19,14.90
2010,05,18,13,20,15.00
2010,05,18,13,21,15.00
2010,05,18,13,22,15.00
2010,05,18,13,23,15.10
2010,05,18,13,24,15.10
2010,05,18,13,25,15.10
2010,05,18,13,26,15.10
2010,05,18,13,27,15.10
2010,05,18,13,28,15.00
2010,05,18,13,29,15.00
2010,05,18,13,30,14.90
2010,05,18,13,31,14.80
2010,05,18,13,32,14.80
2010,05,18,13,33,14.80
2010,05,18,13,34,14.80
2010,05,18,13,35,14.80
2010,05,18,13,36,14.90
2010,05,18,13,37,14.90
2010,05,18,13,38,14.90
2010,05,18,13,39,14.90
2010,05,18,13,40,15.00
2010,05,18,13,41,15.00
2010,05,18,13,42,15.00
2010,05,18,13,43,15.00
2010,05,18,13,44,15.10
2010,05,18,13,45,15.10
2010,05,18,13,46,15.10
2010,05,18,13,47,15.10
2010,05,18,13,48,15.10
2010,05,18,13,49,15.10
2010,05,18,13,50,15.10
2010,05,18,13,51,15.10
2010,05,18,13,52,15.10
2010,05,18,13,53,15.10
2010,05,18,13,54,15.10
2010,05,18,13,55,15.10
2010,05,18,13,56,15.00
2010,05,18,13,57,14.90
2010,05,18,13,58,14.90
2010,05,18,13,59,14.90
2010,05,18,14,00,14.90
2010,05,18,14,01,14.80
2010,05,18,14,02,14.80
2010,05,18,14,03,14.70
2010,05,18,14,04,14.60
2010,05,18,14,05,14.40
2010,05,18,14,06,14.20
2010,05,18,14,07,14.00
2010,05,18,14,08,13.80
2010,05,18,14,09,13.70
2010,05,18,14,10,13.60
2010,05,18,14,11,13.50
2010,05,18,14,12,13.50
2010,05,18,14,13,13.40
2010,05,18,14,14,13.40
2010,05,18,14,15,13.30
2010,05,18,14,16,13.30
2010,05,18,14,17,13.40
2010,05,18,14,18,13.40
2010,05,18,14,19,13.40
2010,05,18,14,20,13.40
2010,05,18,14,21,13.40
2010,05,18,14,22,13.40
2010,05,18,14,23,13.40
2010,05,18,14,24,13.40
2010,05,18,14,25,13.40
2010,05,18,14,26,13.40
2010,05,18,14,27,13.40
2010,05,18,14,28,13.40
2010,05,18,14,29,13.30
2010,05,18,14,30,13.30
2010,05,18,14,31,13.30
2010,05,18,14,32,13.30
2010,05,18,14,33,13.30
2010,05,18,14,34,13.30
2010,05,18,14,35,13.30
2010,05,18,14,36,13.30
2010,05,18,14,37,13.30
2010,05,18,14,38,13.30
2010,05,18,14,39,13.20
2010,05,18,14,40,13.20
2010,05,18,14,41,13.20
2010,05,18,14,42,13.20
2010,05,18,14,43,13.20
2010,05,18,14,44,13.20
2010,05,18,14,45,13.30
2010,05,18,14,46,13.30
2010,05,18,14,47,13.40
2010,05,18,14,48,13.50
2010,05,18,14,49,13.50
2010,05,18,14,50,13.60
2010,05,18,14,51,13.70
2010,05,18,14,52,13.80
2010,05,18,14,53,13.80
2010,05,18,14,54,13.90
2010,05,18,14,55,13.90
2010,05,18,14,56,13.90
2010,05,18,14,57,14.00
2010,05,18,14,58,14.10
2010,05,18,14,59,14.20
2010,05,18,15,00,14.20
2010,05,18,15,01,14.30
2010,05,18,15,02,14.30
2010,05,18,15,03,14.40
2010,05,18,15,04,14.50
2010,05,18,15,05,14.50
2010,05,18,15,06,14.60
2010,05,18,15,07,14.70
2010,05,18,15,08,14.80
2010,05,18,15,09,14.80
2010,05,18,15,10,14.90
2010,05,18,15,11,14.90
2010,05,18,15,12,14.90
2010,05,18,15,13,15.00
2010,05,18,15,14,15.00
2010,05,18,15,15,15.10
2010,05,18,15,16,15.10
2010,05,18,15,17,15.20
2010,05,18,15,18,15.30
2010,05,18,15,19,15.30
2010,05,18,15,20,15.40
2010,05,18,15,21,15.50
2010,05,18,15,22,15.60
2010,05,18,15,23,15.60
2010,05,18,15,24,15.60
2010,05,18,15,25,15.60
2010,05,18,15,26,15.60
2010,05,18,15,27,15.60
2010,05,18,15,28,15.70
2010,05,18,15,29,15.70
2010,05,18,15,30,15.70
2010,05,18,15,31,15.80
2010,05,18,15,32,15.80
2010,05,18,15,33,15.80
2010,05,18,15,34,15.80
2010,05,18,15,35,15.80
2010,05,18,15,36,15.90
2010,05,18,15,37,15.90
2010,05,18,15,38,15.90
2010,05,18,15,39,15.90
2010,05,18,15,40,16.00
2010,05,18,15,41,16.00
2010,05,18,15,42,16.10
2010,05,18,15,43,16.10
2010,05,18,15,44,16.10
2010,05,18,15,45,16.10
2010,05,18,15,46,16.10
2010,05,18,15,47,16.10
2010,05,18,15,48,16.00
2010,05,18,15,49,16.10
2010,05,18,15,50,16.10
2010,05,18,15,51,16.10
2010,05,18,15,52,16.10
2010,05,18,15,53,16.10
2010,05,18,15,54,16.10
2010,05,18,15,55,16.10
2010,05,18,15,56,16.10
2010,05,18,15,57,16.00
2010,05,18,15,58,16.00
2010,05,18,15,59,16.10
2010,05,18,16,00,16.20
2010,05,18,16,01,16.20
2010,05,18,16,02,16.30
2010,05,18,16,03,16.30
2010,05,18,16,04,16.40
2010,05,18,16,05,16.50
2010,05,18,16,06,16.60
2010,05,18,16,07,16.60
2010,05,18,16,08,16.60
2010,05,18,16,09,16.50
2010,05,18,16,10,16.50
2010,05,18,16,11,16.50
2010,05,18,16,12,16.40
2010,05,18,16,13,16.40
2010,05,18,16,14,16.40
2010,05,18,16,15,16.50
2010,05,18,16,16,16.50
2010,05,18,16,17,16.50
2010,05,18,16,18,16.50
2010,05,18,16,19,16.40
2010,05,18,16,20,16.30
2010,05,18,16,21,16.30
2010,05,18,16,22,16.20
2010,05,18,16,23,16.10
2010,05,18,16,24,16.00
2010,05,18,16,25,15.90
2010,05,18,16,26,15.80
2010,05,18,16,27,15.70
2010,05,18,16,28,15.70
2010,05,18,16,29,15.80
2010,05,18,16,30,15.80
2010,05,18,16,31,15.90
2010,05,18,16,32,16.00
2010,05,18,16,33,16.10
2010,05,18,16,34,16.10
2010,05,18,16,35,16.10
2010,05,18,16,36,16.20
2010,05,18,16,37,16.30
2010,05,18,16,38,16.30
2010,05,18,16,39,16.20
2010,05,18,16,40,16.20
2010,05,18,16,41,16.30
2010,05,18,16,42,16.30
2010,05,18,16,43,16.40
2010,05,18,16,44,16.40
2010,05,18,16,45,16.40
2010,05,18,16,46,16.40
2010,05,18,16,47,16.40
2010,05,18,16,48,16.40
2010,05,18,16,49,16.40
2010,05,18,16,50,16.40
2010,05,18,16,51,16.40
2010,05,18,16,52,16.40
2010,05,18,16,53,16.50
2010,05,18,16,54,16.60
2010,05,18,16,55,16.60
2010,05,18,16,56,16.60
2010,05,18,16,57,16.60
2010,05,18,16,58,16.60
2010,05,18,16,59,16.60
2010,05,18,17,00,16.60
2010,05,18,17,01,16.60
2010,05,18,17,02,16.60
2010,05,18,17,03,16.60
2010,05,18,17,04,16.60
2010,05,18,17,05,16.70
2010,05,18,17,06,16.80
2010,05,18,17,07,16.80
2010,05,18,17,08,16.80
2010,05,18,17,09,16.80
2010,05,18,17,10,16.80
2010,05,18,17,11,16.80
2010,05,18,17,12,16.80
2010,05,18,17,13,16.70
2010,05,18,17,14,16.70
2010,05,18,17,15,16.70
2010,05,18,17,16,16.70
2010,05,18,17,17,16.60
2010,05,18,17,18,16.60
2010,05,18,17,19,16.60